Location: Occidental Observatory
(38.4214°N, 122.9202°W)
Time: 04:07:25
(UTC-07:00)

Daily predictions for brighter satellites

Satellite Brightness Start Highest point End
(mag) Time Altitude Azimuth Time Altitude Azimuth Time Altitude Azimuth
Cosmos 1953 4.4 00:05:57 10° NNE 00:07:49 23° NNE 00:07:49 23° NNE
SL-19 R/B 4.3 00:08:14 10° NNE 00:14:12 78° ENE 00:14:12 78° ENE
Cosmos 2333 Rocket 2.4 00:10:25 10° NNW 00:15:37 65° W 00:15:37 65° W
COSMOS 2428 3.6 00:13:52 10° NW 00:18:36 37° W 00:18:36 37° W
SL-16 R/B 3.5 00:17:00 10° N 00:21:59 30° ENE 00:22:35 30° ENE
H-2A R/B 3.7 00:24:33 29° NE 00:24:33 29° NE 00:27:13 10° N
Cosmos 1980 3.8 00:26:30 10° NNW 00:31:29 69° NW 00:31:29 69° NW
Mayak 0.4 00:29:08 10° NNE 00:31:30 32° NNE 00:31:30 32° NNE
Iridium 4 Rocket 3.9 00:35:54 67° WNW 00:35:54 67° WNW 00:41:22 10° N
Cosmos 2297 Rocket 2.4 00:38:31 69° NNW 00:38:31 69° NNW 00:43:42 10° NNE
Cosmos 2266 Rocket 4.0 00:31:48 10° N 00:38:07 72° ENE 00:38:07 72° ENE
Cosmos 2227 Rocket 2.5 00:41:33 62° NW 00:41:33 62° NW 00:46:58 10° NNE
Meteor 2-11 Rocket 4.4 00:43:21 79° NNE 00:43:21 79° NNE 00:49:06 10° N
CZ-4C R/B 3.5 00:39:18 10° NW 00:46:19 44° WSW 00:46:24 44° WSW
Cosmos 2237 Rocket 2.6 00:44:35 10° NNW 00:49:16 55° WNW 00:49:16 55° WNW
ISS -0.3 00:50:07 10° N 00:50:32 10° NNE 00:50:57 10° NNE
Cosmos 2082 4.0 00:54:44 64° NW 00:54:44 64° NW 01:00:05 10° NNE
Cosmos 1680 Rocket 4.1 01:05:38 55° NNE 01:05:38 55° NNE 01:09:41 10° NNE
COSMOS 2455 3.8 01:13:44 38° WNW 01:14:44 40° NW 01:20:24 10° NNE
ALOS 2 4.4 01:17:40 26° NW 01:17:40 26° NW 01:19:52 10° NNW
CZ-4B R/B 4.4 01:17:00 10° N 01:21:14 43° NW 01:21:14 43° NW
ADEOS Rocket 3.2 01:18:18 10° N 01:23:19 52° WNW 01:23:19 52° WNW
NOSS 3-1 (C) 4.2 01:27:45 37° E 01:27:45 37° E 01:32:13 10° NE
Nadezhda 2 Rocket 4.5 01:24:37 10° N 01:30:55 80° WNW 01:30:55 80° WNW
S3M 4.0 01:44:57 67° E 01:44:57 67° E 01:51:07 10° NNE
USA 229 DEB 3.5 01:44:50 75° W 01:45:17 79° NW 01:52:12 10° NNE
USA 229 3.5 01:44:58 76° W 01:45:23 79° WNW 01:52:18 10° NNE
NOSS 3-1 (A) 4.2 01:47:39 38° E 01:47:39 38° E 01:52:28 10° NE
Meteor 1-24 Rocket 3.8 01:49:21 76° NNW 01:49:21 76° NNW 01:54:47 10° N
Cosmos-2242 4.4 01:47:15 10° N 01:49:51 36° N 01:49:51 36° N
Meteor 2-5 Rocket 4.3 01:52:40 51° WNW 01:52:40 51° WNW 01:58:07 10° N
Resurs 1-4 Rocket 4.4 01:51:21 10° ENE 01:53:52 13° E 01:54:35 13° E
Cosmos 2263 Rocket 2.8 02:04:28 47° E 02:04:28 47° E 02:09:33 10° NE
DELTA 2 R/B (1) 3.8 02:05:38 63° ENE 02:05:38 63° ENE 02:10:24 10° E
Cosmos 1943 4.3 02:00:13 10° N 02:05:33 39° ENE 02:07:25 31° ESE
SL-16 R/B 3.4 02:00:58 10° NW 02:04:27 30° WNW 02:04:27 30° WNW
MOS 1 Rocket 3.7 02:05:11 10° N 02:10:15 71° NW 02:10:15 71° NW
Cosmos 1726 4.2 02:09:18 10° N 02:11:08 27° NNE 02:11:08 27° NNE
Meteor 2-13 Rocket 4.4 02:08:20 10° N 02:14:25 75° E 02:14:52 71° ESE
Meteor 2-10 4.4 02:10:01 10° N 02:14:51 56° ENE 02:14:51 56° ENE
GEOS 3 Rocket 3.6 02:14:17 10° NE 02:19:20 79° ENE 02:19:20 79° ENE
Cosmos 1553 Rocket 4.3 02:25:43 49° W 02:25:58 49° W 02:31:56 10° N
Cosmos 1603 3.8 02:32:07 10° NNW 02:37:13 61° W 02:37:13 61° W
Cosmos 2221 3.2 02:34:43 10° N 02:38:48 50° ENE 02:38:48 50° ENE
Cosmos 1452 Rocket 3.4 02:35:05 10° NNW 02:40:24 81° ENE 02:40:37 79° ESE
Cosmos 158 Rocket 4.1 02:45:38 66° WNW 02:45:45 66° WNW 02:51:08 10° NNE
Cosmos 1048 Rocket 4.0 02:46:50 70° ESE 02:47:00 70° ESE 02:52:13 10° NNE
Cosmos 1626 3.3 02:52:30 40° ENE 02:52:30 40° ENE 02:55:21 10° NNE
Cosmos 883 Rocket 4.5 02:55:53 55° WSW 02:56:40 59° W 03:02:42 10° N
SL-24 R/B - RUBIN 2 3.9 02:56:34 69° SE 02:56:50 71° ESE 03:01:44 10° NE
CZ-4B R/B 3.6 03:01:17 20° NW 03:01:17 20° NW 03:02:32 10° NNW
NOSS 2-3 (E) 4.1 03:01:40 50° ESE 03:01:46 51° ESE 03:06:40 10° NE
Meteor 1-21 Rocket 4.4 03:01:41 54° WSW 03:02:25 59° WNW 03:08:17 10° N
SL-16 R/B 2.7 02:59:48 31° SSE 03:02:52 70° ENE 03:09:03 10° N
Genesis I 3.7 03:04:45 60° N 03:04:45 60° N 03:08:10 10° NNE
Cosmos 1340 4.0 03:04:38 10° NNW 03:06:54 32° NW 03:06:54 32° NW
IRS-1C 4.3 03:03:49 10° NNE 03:09:09 66° ESE 03:10:25 50° SSE
Cosmos 1420 Rocket 3.9 03:04:35 10° NNW 03:09:44 63° WSW 03:09:46 63° WSW
Cosmos 2315 Rocket 4.0 03:08:31 52° SW 03:09:45 63° W 03:15:56 10° N
CZ-2D R/B 2.1 03:07:29 10° NNE 03:12:42 74° ESE 03:13:51 54° S
Cosmos 921 Rocket 4.0 03:09:30 10° N 03:13:37 44° ENE 03:15:35 26° SE
Aureole 1 Rocket 4.3 03:17:57 21° NNW 03:17:57 21° NNW 03:19:26 10° N
SeaSat 1 3.0 03:14:42 16° SE 03:18:34 58° ENE 03:23:24 10° NNW
CBERS-1 4.0 03:15:34 10° N 03:20:40 70° WNW 03:21:33 57° SW
AQUA 3.7 03:16:50 10° N 03:21:36 75° WNW 03:22:13 64° SW
SL-08 ROCKET BODY 4.5 03:18:51 10° NNW 03:24:51 62° W 03:26:33 45° SSW
Cosmos 1703 3.4 03:27:17 59° SE 03:27:42 65° E 03:31:39 10° NNE
IRS-1D 3.5 03:24:07 10° NNE 03:29:29 87° ESE 03:31:10 46° S
Cosmos 1844 Rocket 3.2 03:27:19 33° SSE 03:29:33 52° ESE 03:35:03 10° NNE
H-2A R/B 2.6 03:26:11 10° N 03:30:36 62° WNW 03:31:02 58° WSW
Cosmos 1408 Rocket 3.7 03:32:05 48° SSE 03:33:08 67° E 03:37:26 10° NNE
Resurs 1-4 Rocket 2.1 03:28:52 10° N 03:34:09 69° WNW 03:35:39 46° SW
Cosmos 1110 Rocket 4.5 03:29:13 10° N 03:34:22 59° ENE 03:39:26 10° SSE
ARIANE 5 R/B 2.6 03:30:19 10° NNE 03:35:24 73° ESE 03:37:17 39° S
Centaur D-1A AC-35 4.5 03:33:24 31° SSW 03:35:33 35° S 04:02:30 10° ESE
Cosmos 2278 Rocket 4.4 03:34:10 10° SE 03:37:53 18° E 03:41:37 10° ENE
ERS-1 4.4 03:33:49 10° NNE 03:38:59 90° WNW 03:40:51 41° SSW
Okean 3 Rocket 4.0 03:38:43 45° W 03:39:06 46° W 03:43:24 10° N
NPP 4.2 03:34:32 10° N 03:39:36 43° WNW 03:41:02 36° WSW
NOSS 2-3 (C) 3.8 03:38:50 50° WSW 03:39:57 72° NW 03:45:10 10° NNE
Cosmos 494 Rocket 3.9 03:39:14 43° SSW 03:40:59 85° ESE 03:46:13 10° NNE
UNKNOWN OBJECT B 4.0 03:37:31 10° NNE 03:40:59 35° E 03:42:24 26° SE
UNK 3.9 03:40:54 49° SW 03:41:26 51° W 03:46:00 10° NNW
Cosmos 1844 4.3 03:39:31 27° SSE 03:42:18 50° ESE 03:47:45 10° NNE
Helios 1A Rocket 3.8 03:39:56 10° NNE 03:43:51 44° E 03:45:32 28° SSE
SL-08 R/B 3.6 03:44:02 44° SW 03:44:53 49° W 03:49:41 10° NNW
Cosmos 2058 3.3 03:43:47 36° SSE 03:45:19 62° E 03:49:30 10° NNE
USA 267 3.3 03:38:58 10° NE 03:45:31 79° NW 03:48:58 31° WSW
Cosmos 2263 Rocket 3.7 03:46:09 20° W 03:48:14 24° NW 03:52:49 10° N
Meteor 1-11 4.2 03:46:38 37° SSW 03:48:53 73° W 03:54:31 10° N
Cosmos 1943 4.2 03:44:41 10° NW 03:49:10 27° W 03:49:10 27° W
DELTA 2 R/B (1) 3.5 03:46:24 14° W 03:51:20 77° SSW 03:56:56 10° ESE
CZ-2D R/B 4.1 03:47:39 10° NNE 03:52:03 56° E 03:54:20 26° SSE
Nadezhda 1 Rocket 3.9 03:49:40 27° S 03:53:18 90° ENE 03:59:38 10° N
Cosmos 1455 2.0 03:49:34 10° N 03:53:21 88° W 03:54:26 45° S
Meteor 2-2 Rocket 4.2 03:47:41 10° NNW 03:53:25 67° W 03:56:30 27° S
Cosmos 2074 Rocket 3.9 03:47:24 10° NNW 03:53:36 71° W 03:57:30 24° S
ADEOS II 3.2 03:50:44 10° NNE 03:55:40 40° E 04:00:08 12° SSE
SWAS 4.3 03:52:08 10° NNW 03:56:26 85° WSW 03:59:45 17° SSE
Cosmos 2184 Rocket 4.0 03:51:45 10° NNW 03:58:05 69° W 04:02:22 22° S
Cosmos 2154 Rocket 4.3 03:54:04 10° N 04:00:22 71° E 04:06:40 10° SSE
Cosmos 1607 3.9 03:55:56 10° NW 04:02:20 74° WSW 04:08:34 10° SSE
Timation 1 Rocket 4.4 03:59:06 27° SSW 04:02:30 78° ESE 04:08:28 10° NNE
Cosmos 1743 Rocket 3.7 04:01:12 26° S 04:03:35 70° E 04:07:53 10° NNE
COSMOS 2406 4.0 04:02:55 10° NNW 04:08:36 54° ENE 04:14:13 10° SE
OAO 2 Rocket 3.3 04:06:43 31° WSW 04:08:52 58° S 04:13:43 10° E
Cosmos 1610 Rocket 4.5 04:05:23 10° N 04:11:46 78° W 04:17:53 11° S
Cosmos 2151 2.9 04:11:38 29° SSW 04:13:45 74° W 04:18:05 10° N
BREEZE-M DEB (TANK) 3.7 04:04:02 10° NW 04:15:43 69° SW 04:19:11 10° SE
Cosmos 1331 Rocket 3.9 04:11:14 10° NNW 04:16:20 63° WSW 04:21:24 10° S
MOZ.5/SAFIR/RUBIN 5/SL-8 4.4 04:15:00 28° SW 04:16:39 36° W 04:21:03 10° NNW
Cosmos 1302 Rocket 4.2 04:15:16 10° NNW 04:20:35 77° ENE 04:25:52 10° SSE
Cosmos 1932 4.4 04:14:49 10° NNW 04:21:05 90° SSW 04:27:15 10° SSE
SAR-Lupe-2 3.9 04:22:32 30° SSW 04:23:50 43° W 04:27:15 10° NNW
Meteor 2-21 4.5 04:18:11 10° NNW 04:24:11 61° W 04:29:54 11° S
Cosmos 2251 Rocket 3.6 04:21:54 22° SSW 04:25:26 74° WNW 04:30:50 10° NNE
BREEZE-M DEB (TANK) 3.6 04:19:49 18° WSW 04:25:46 78° NNW 04:29:08 10° ENE
ADEOS 3.6 04:24:03 10° N 04:29:14 65° WNW 04:33:06 18° SSW
Cosmos 220 Rocket 3.9 04:27:11 22° SSW 04:29:58 78° WNW 04:34:17 10° NNE
Lacrosse 5 4.4 04:33:31 10° SE 04:35:29 12° ESE 04:37:28 10° E
Cosmos 1500 Rocket 3.7 04:36:29 18° SSW 04:39:42 56° W 04:44:05 10° N
Cosmos 1328 Rocket 4.2 04:36:13 10° NNW 04:40:07 34° W 04:42:50 17° SSW
Cosmos 405 Rocket 2.6 04:38:24 10° N 04:42:14 81° W 04:45:59 10° S
Cosmos 2228 Rocket 3.4 04:41:56 10° NNW 04:46:20 47° W 04:50:41 10° SSW
SL-16 R/B 4.0 04:44:53 14° WSW 04:46:59 17° W 04:50:48 10° NW
SL-19 R/B 3.6 04:44:47 10° S 04:47:45 54° WSW 04:50:33 10° NNW
CZ-2D R/B 4.1 04:49:40 10° NNW 04:52:06 13° WNW 04:54:33 10° W
SeaSat 1 3.9 04:54:26 14° SW 04:56:21 17° WSW 04:59:29 10° WNW
ATLAS 2AS CENTAUR R/B 3.2 04:53:08 12° SW 05:00:24 73° NW 05:08:34 10° NNE
Cosmos 1515 Rocket 4.5 04:58:24 10° NNW 05:02:09 29° W 05:05:53 10° SSW
GP-B 3.4 04:59:00 10° N 05:03:16 48° W 05:07:31 10° SSW
Cosmos 1666 Rocket 4.4 05:00:19 10° S 05:04:39 53° E 05:08:59 10° NNE
Cosmos 1633 Rocket 4.3 05:01:34 10° SSE 05:05:40 43° E 05:09:48 10° NNE
Cosmos 1441 Rocket 4.1 05:02:58 10° NNW 05:06:29 31° W 05:09:57 10° SSW
Cosmos 2098 Rocket 4.2 05:03:13 10° N 05:09:28 86° W 05:16:47 10° S
In-Cosmos 22 Rocket 4.1 05:04:03 10° S 05:09:32 84° W 05:14:55 10° N
Meteor 2-10 Rocket 3.9 05:07:13 10° NNW 05:11:57 41° W 05:16:37 10° SSW
PSLV R/B 3.5 05:08:21 10° N 05:12:37 76° WNW 05:16:54 10° SSW
Okean O Rocket 3.1 05:09:23 10° NNE 05:13:29 38° E 05:17:34 10° SSE
Cosmos 1844 Rocket 4.2 05:09:22 10° WSW 05:13:44 22° NW 05:18:08 10° N
ARIANE 5 R/B 4.5 05:11:33 10° NW 05:13:50 13° WNW 05:16:08 10° W
Cosmos 1992 Rocket 4.2 05:09:38 10° NNW 05:14:52 80° ENE 05:20:03 10° SSE
Cosmos 2341 Rocket 4.4 05:10:08 10° NNW 05:15:59 43° W 05:21:51 10° SSW
Cosmos 1151 Rocket 4.5 05:14:42 10° NW 05:17:51 20° W 05:20:58 10° SW
Cosmos 1892 2.8 05:14:17 10° S 05:18:09 84° E 05:22:01 10° N
CZ-4B R/B 4.4 05:14:28 10° NNE 05:19:28 41° E 05:24:24 10° S
Cosmos 2278 Rocket 2.4 05:15:52 10° SW 05:21:25 57° WNW 05:27:01 10° NNE
MOS 1-B 4.4 05:15:59 10° NNE 05:21:50 89° WNW 05:27:37 10° SSW
SL-8 Rocket 4.1 05:18:34 10° NNW 05:24:37 57° W 05:30:39 10° S
DELTA 2 R/B(2) 4.1 05:22:45 10° WNW 05:27:12 89° SSW 05:29:33 10° ESE
